Richmond, VA

5:39 AM EST on December 06, 2019 (GMT -0500)
Richmond International

Weather History for KRIC - October, 2019

Change the Weather History Date:

Saturday, October 5, 2019

  Actual Average Record
Temperature  
Mean Temperature 60 °F 63 °F  
Max Temperature 71 °F 74 °F 97 °F (1941)
Min Temperature 50 °F 52 °F 32 °F (1965)
Degree Days  
Heating Degree Days 4 4  
Month to date heating degree days 4 17  
Since 1 July heating degree days 4 46  
Cooling Degree Days 0 2  
Month to date cooling degree days 57 12  
Year to date cooling degree days 2027 1516  
Growing Degree Days 10 (Base 50)    
Moisture  
Dew Point 49 °F    
Average Humidity 65    
Maximum Humidity 80    
Minimum Humidity 51    
Precipitation  
Precipitation 0.00 in 0.10 in 2.12 in (1948)
Month to date precipitation 0.00 0.49  
Year to date precipitation 33.15 34.61  
Snow  
Snow 0.00 in 0.00 in 0.00 in (2002)
Month to date snowfall 0.0 0.0  
Since 1 July snowfall 0.0 0.0  
Snow Depth 0.00 in    
Sea Level Pressure  
Sea Level Pressure 30.34 in    
Wind  
Wind Speed 9 mph ()    
Max Wind Speed 16 mph    
Max Gust Speed 22 mph    
Visibility 10.0 miles    
Events      
T = Trace of Precipitation, MM = Missing Value Source: Averaged Metar Reports

Daily Weather History Graph

Daily Weather History Graph

Search for Another Location

Airport or City:

Astronomy

Oct. 05, 2019 Rise Set
Actual Time 7:08 AM EDT 6:46 PM EDT
Civil Twilight 6:41 AM EDT 7:12 PM EDT
Nautical Twilight 6:11 AM EDT 7:43 PM EDT
Astronomical Twilight 5:41 AM EDT 8:13 PM EDT
Moon 2:25 PM EDT (10/5) No Moon Set
Length of Visible Light 12h 30m
Length of Day
11h 38m
Waxing Crescent, 50% of the Moon is Illuminated
Oct 5
Waxing Crescent
Oct 5
First Quarter
Oct 13
Full
Oct 21
Last Quarter
Oct 27
New

Hourly Weather History & Observations

Time (EDT) Temp. Dew Point Humidity Pressure Visibility Wind Dir Wind Speed Gust Speed Precip Events Conditions
12:54 AM 59.0 °F 46.9 °F 64% 30.29 in 10.0 mi NE 10.4 mph 21.9 mph N/A   Clear
1:54 AM 57.0 °F 45.0 °F 64% 30.32 in 10.0 mi NE 11.5 mph - N/A   Clear
2:54 AM 55.0 °F 44.1 °F 67% 30.32 in 10.0 mi NNE 9.2 mph - N/A   Clear
3:54 AM 53.1 °F 43.0 °F 69% 30.33 in 10.0 mi NNE 8.1 mph - N/A   Clear
4:54 AM 52.0 °F 44.1 °F 74% 30.34 in 10.0 mi North 8.1 mph - N/A   Clear
5:54 AM 51.1 °F 45.0 °F 80% 30.35 in 10.0 mi North 8.1 mph - N/A   Mostly Cloudy
6:54 AM 51.1 °F 43.0 °F 74% 30.37 in 10.0 mi North 9.2 mph - N/A   Mostly Cloudy
7:54 AM 51.1 °F 43.0 °F 74% 30.38 in 10.0 mi North 13.8 mph - N/A   Mostly Cloudy
8:54 AM 55.0 °F 45.0 °F 69% 30.39 in 10.0 mi NNE 12.7 mph - N/A   Mostly Cloudy
9:54 AM 57.0 °F 46.0 °F 67% 30.40 in 10.0 mi NNE 13.8 mph - N/A   Mostly Cloudy
10:54 AM 61.0 °F 48.0 °F 62% 30.39 in 10.0 mi ENE 11.5 mph - N/A   Mostly Cloudy
11:54 AM 66.0 °F 50.0 °F 56% 30.38 in 10.0 mi Variable 5.8 mph - N/A   Mostly Cloudy
12:54 PM 66.9 °F 50.0 °F 54% 30.37 in 10.0 mi East 9.2 mph - N/A   Mostly Cloudy
1:54 PM 68.0 °F 50.0 °F 52% 30.34 in 10.0 mi NE 11.5 mph - N/A   Mostly Cloudy
2:54 PM 69.1 °F 50.0 °F 51% 30.32 in 10.0 mi ESE 10.4 mph - N/A   Overcast
3:54 PM 68.0 °F 51.1 °F 55% 30.32 in 10.0 mi ESE 12.7 mph 17.3 mph N/A   Mostly Cloudy
4:54 PM 68.0 °F 51.1 °F 55% 30.30 in 10.0 mi East 10.4 mph - N/A   Scattered Clouds
5:54 PM 66.0 °F 52.0 °F 60% 30.31 in 10.0 mi ESE 9.2 mph - N/A   Mostly Cloudy
6:54 PM 64.9 °F 52.0 °F 63% 30.30 in 10.0 mi ESE 9.2 mph - N/A   Overcast
7:54 PM 64.0 °F 54.0 °F 70% 30.31 in 10.0 mi East 6.9 mph - N/A   Overcast
8:54 PM 64.0 °F 54.0 °F 70% 30.32 in 10.0 mi ESE 9.2 mph - N/A   Overcast
9:54 PM 63.0 °F 54.0 °F 72% 30.32 in 10.0 mi ESE 6.9 mph - N/A   Overcast
10:54 PM 63.0 °F 54.0 °F 72% 30.32 in 10.0 mi East 6.9 mph - N/A   Overcast
11:54 PM 63.0 °F 55.0 °F 75% 30.32 in 10.0 mi ESE 4.6 mph - N/A   Overcast